Showing default

YAOGAN-36 01A, 53943

Orbit data source: Space-Track

YAOGAN-36 01A, 53943 is a payload satellite owned by PLA GAD (CN) in LEO that was launched on Mon, 26 Sep 2022 UTC via a CHANG ZHENG 2D launch vehicle from the Xichang Space Center, China (XSC). Payload-class satellites include a variety of spacecraft equipped with specific instruments for various scientific and technological missions. These include communications satellites like Starlink; space stations such as the ISS; scientific satellites like the Hubble; Earth observation satellites from companies like Planet Labs, Umbra, and HawkEye 360; GPS; miniature CubeSats for education and research; and military/defense satellites.

Loading next visibility...
Identifier
53943, 2022-120A
Orbit
LEO
Country
Flag of CNCN / PRC
Related business
Manufacturer
DFH
Mission
Operational Defense Sigint
Bus & Motor
Unknown
Mass
~300 kg wet, ~300 kg dry
Launch date (UTC)
2022-09-26 (4 years ago)
Launch vehicle
CHANG ZHENG 2D
Launch site
Xichang Space Center, China (XSC)
Object type
Payload
Rocket body
Debris
Shape & HBR
Box + 2 Pan, 2.5 m
Radar Cross Section
11.063 m², Large (>1 m²)

Expand to show TLE details & history
Last TLE update: 22 hours ago

TLE from 22 hours ago
0 YAOGAN-36 01A
1 53943U 22120A   26172.53061292  .00006477  00000-0  26395-3 0  9999
2 53943  34.9905 257.4348 0004485  28.6862 331.4098 15.23776568207975
Epoch: 2026-06-21T12:44Z
TLE epoch observation values (Epoch: 2026-06-21T12:44:04.956Z)
Latitude
-0.00006°
Longitude
156.68451°
Altitude
490.662 km
Speed
7.623 km/s
True Right ascension
17h 09m 44s
True Declination
0° 00' 00"
Sunlit
Object was in full shadow at epoch
Visualization orbit readout
Latitude
Unknown
Longitude
Unknown
Altitude
Unknown
Speed
Unknown
Apparent Right ascension
Unknown
Apparent Declination
Unknown
Sunlit
N/A
Visualization observer readout
Local Sidereal Time
21:32:24
Azimuth
Unknown
Elevation
Unknown
Doppler factor
Unknown
Orbital elements
Apogee altitude
500.798 km
Perigee altitude
494.631 km
Semi-major axis
6,875.851 km
Eccentricity
0.00045
Inclination
34.9905°
RAAN
257.4348°
Arg. of periapsis
28.6862°
True anomaly
331.38519°
Mean anomaly
331.4098°
Eccentric anomaly
331.3975°
Mean motion
3.80674 °/min
Orbital period
94.57 mins
BSTAR
0.00026395
Loading maneuver chart data...
Computing Atmospheric mass density...
Loading historical data...
Loading historical data...
Loading historical data...
Loading historical data...
Loading historical data...
Loading historical data...
Loading historical data...

Documentation

Showing up to 5 results
|